Notices

What's New in latest Release from April 7th, 2021:

- Updated Glossary, including Speed of Maximum Gust, and Total Hourly Precipitation

- Updated national and regional climate services offices contacts and prices information

- Addition of station inventory lists for 1981-2010, 1971-2000, and 1961-1990 Normals.

If you haven't already, please take our survey and provide feedback about our website: https://eccc.sondage-survey.ca/f/LanguageSelection.aspx?s=442ca660-fcf1-47c0-95a9-59707d6fd709

Hourly Data Report for January 24, 2021

STE-ANNE-DE-BELLEVUE 1
QUEBEC
Current Station Operator: ECCC - MSC

45°25'38.000" N
73°55'45.000" W
39.00 m
702FHL8
71377
WVQ

Download Data

Hourly Data (January 2021)
Hourly Data Report for January 24, 2021
TIME
LST
Temp Definition
°C
Dew Point Definition
°C
Rel Hum Definition
%
Precip. Amount Definition
mm

Wind Dir Definition
10's deg

Wind Spd Definition
km/h
Visibility Definition
km
Stn Press Definition
kPa
Hmdx Definition


Wind Chill Definition


Weather Definition


00:00 -15.1 -19.6 69 0.0 27 16   101.64   -23 LegendNANA
01:00 -15.5 -19.9 69 0.0 27 19   101.62   -25 LegendNANA
02:00 -16.6 -20.6 71 0.0 25 14   101.65   -25 LegendNANA
03:00 -17.0 -20.6 74 0.0 26 23   101.65   -27 LegendNANA
04:00 -17.4 -20.7 76 0.0 25 25   101.65   -28 LegendNANA
05:00 -17.7 -21.1 75 0.0 25 19   101.70   -27 LegendNANA
06:00 -17.9 -21.3 75 0.0 25 22   101.72   -28 LegendNANA
07:00 -18.0 -21.4 74 0.0 25 22   101.72   -28 LegendNANA
08:00 -18.2 -21.8 73 0.0 26 32   101.69   -31 LegendNANA
09:00 -17.6 -21.8 70 0.0 25 27   101.71   -29 LegendNANA
10:00 -16.3 -21.2 66 0.0 24 19   101.74   -26 LegendNANA
11:00 -15.4 -20.7 64 0.0 25 23   101.68   -25 LegendNANA
12:00 -14.5 -20.1 62 0.0 24 24   101.60   -24 LegendNANA
13:00 -12.9 -19.0 60 0.0 25 21   101.51   -22 LegendNANA
14:00 -11.8 -18.0 60 0.0 24 25   101.48   -21 LegendNANA
15:00 -11.3 -17.2 61 0.0 25 24   101.49   -20 LegendNANA
16:00 -11.7 -17.2 64 0.0 25 23   101.49   -21 LegendNANA
17:00 -11.8 -17.1 65 0.0 26 22   101.56   -21 LegendNANA
18:00 -12.4 -17.4 66 0.0 26 22   101.61   -21 LegendNANA
19:00 -13.3 -17.9 69 0.0 24 18   101.63   -22 LegendNANA
20:00 -13.5 -18.1 69 0.0 24 18   101.63   -22 LegendNANA
21:00 -13.8 -18.4 68 0.0 25 19   101.63   -22 LegendNANA
22:00 -14.2 -18.4 70 0.0 25 18   101.61   -23 LegendNANA
23:00 -14.3 -18.1 73 0.0 25 17   101.60   -23 LegendNANA

Notes on Data Quality.

Legend

  • E = Estimated
  • M = Missing
  • NA = Not Available*
  • [empty] = Indicates an unobserved value
Date modified: